Mount Pleasant, IA

1:29 AM CDT on September 27, 2016 (GMT -0500)
Mount Pleasant Municipal

Weather History for KMPZ - May, 2013

Change the Weather History Date:

Tuesday, May 21, 2013

  Actual Average Record
Temperature  
Mean Temperature 73 °F -  
Max Temperature 81 °F 75 °F 91 °F (1964)
Min Temperature 65 °F 51 °F 33 °F (1967)
Cooling Degree Days 8    
Growing Degree Days 23 (Base 50)    
Moisture  
Dew Point 55 °F    
Average Humidity 57    
Maximum Humidity 80    
Minimum Humidity 31    
Precipitation  
Precipitation 0.00 in - - ()
Sea Level Pressure  
Sea Level Pressure 29.68 in    
Wind  
Wind Speed 13 mph (SSW)    
Max Wind Speed 21 mph    
Max Gust Speed 30 mph    
Visibility 10 miles    
Events      
Averages and records for this station are not official NWS values.
T = Trace of Precipitation, MM = Missing Value Source: NWS Daily Summary

Daily Weather History Graph

Daily Weather History Graph

Search for Another Location

Airport or City:

Trip Planner

Search our weather history database for the weather conditions in past years. The results will help you decide how hot, cold, wet, or windy it might be!

Date:

Astronomy

May. 21, 2013 Rise Set
Actual Time 5:42 AM CDT 8:22 PM CDT
Civil Twilight 5:11 AM CDT 8:54 PM CDT
Nautical Twilight 4:31 AM CDT 9:34 PM CDT
Astronomical Twilight 3:46 AM CDT 10:20 PM CDT
Moon 4:35 PM CDT (5/21) 3:12 AM CDT (5/21)
Length of Visible Light 15h 43m
Length of Day
14h 39m
Waxing Gibbous, 84% of the Moon is Illuminated
May 21
Waxing Gibbous
May 24
Full
May 31
Last Quarter
Jun 8
New
Jun 16
First Quarter

Hourly Weather History & Observations

Time (CDT) Temp. Heat Index Dew Point Humidity Pressure Visibility Wind Dir Wind Speed Gust Speed Precip Events Conditions
12:15 AM 68.9 °F - 59.5 °F 72% 29.69 in 10.0 mi SSW 12.7 mph 17.3 mph N/A   Mostly Cloudy
12:35 AM 68.4 °F - 59.7 °F 74% 29.70 in 10.0 mi SSW 12.7 mph - N/A   Scattered Clouds
12:55 AM 68.2 °F - 59.9 °F 75% 29.69 in 10.0 mi SSW 10.4 mph - N/A   Mostly Cloudy
1:15 AM 68.0 °F - 59.9 °F 75% 29.69 in 10.0 mi South 9.2 mph - N/A   Mostly Cloudy
1:35 AM 68.0 °F - 60.1 °F 76% 29.67 in 10.0 mi SSE 10.4 mph - N/A   Mostly Cloudy
1:55 AM 67.6 °F - 59.9 °F 76% 29.66 in 10.0 mi SSE 15.0 mph - N/A   Scattered Clouds
2:15 AM 67.3 °F - 59.9 °F 77% 29.65 in 10.0 mi South 13.8 mph - N/A   Clear
2:35 AM 67.1 °F - 59.9 °F 78% 29.65 in 10.0 mi South 13.8 mph - N/A   Clear
2:55 AM 67.5 °F - 59.9 °F 77% 29.65 in 10.0 mi South 15.0 mph - N/A   Mostly Cloudy
3:15 AM 68.0 °F - 59.9 °F 75% 29.65 in 10.0 mi South 13.8 mph - N/A   Overcast
3:35 AM 68.0 °F - 59.9 °F 75% 29.65 in 10.0 mi South 15.0 mph - N/A   Overcast
3:55 AM 67.1 °F - 59.4 °F 76% 29.65 in 10.0 mi South 13.8 mph - N/A   Scattered Clouds
4:15 AM 66.9 °F - 59.7 °F 78% 29.65 in 10.0 mi South 12.7 mph 21.9 mph N/A   Scattered Clouds
4:35 AM 66.2 °F - 59.4 °F 79% 29.66 in 10.0 mi South 12.7 mph - N/A   Scattered Clouds
4:55 AM 66.2 °F - 59.4 °F 79% 29.66 in 10.0 mi South 12.7 mph - N/A   Mostly Cloudy
5:15 AM 66.2 °F - 59.4 °F 79% 29.67 in 10.0 mi South 10.4 mph - N/A   Mostly Cloudy
5:35 AM 65.8 °F - 59.4 °F 80% 29.67 in 10.0 mi South 12.7 mph - N/A   Scattered Clouds
5:55 AM 65.8 °F - 59.4 °F 80% 29.67 in 10.0 mi South 12.7 mph 17.3 mph N/A   Scattered Clouds
6:15 AM 66.2 °F - 59.5 °F 79% 29.68 in 7.0 mi South 11.5 mph - N/A   Mostly Cloudy
6:35 AM 66.6 °F - 59.5 °F 78% 29.67 in 7.0 mi South 11.5 mph - N/A   Scattered Clouds
6:55 AM 67.1 °F - 59.9 °F 78% 29.67 in 10.0 mi SSW 12.7 mph - N/A   Clear
7:15 AM 68.0 °F - 59.9 °F 75% 29.67 in 10.0 mi SSW 16.1 mph - N/A   Scattered Clouds
7:35 AM 68.9 °F - 59.4 °F 72% 29.67 in 10.0 mi SSW 13.8 mph 21.9 mph N/A   Clear
7:55 AM 70.3 °F - 57.9 °F 65% 29.68 in 10.0 mi SW 13.8 mph 19.6 mph N/A   Clear
8:15 AM 70.9 °F - 58.5 °F 65% 29.69 in 10.0 mi SSW 16.1 mph - N/A   Clear
8:35 AM 71.8 °F - 56.1 °F 58% 29.69 in 10.0 mi SW 20.7 mph 25.3 mph N/A   Scattered Clouds
8:55 AM 72.3 °F - 57.4 °F 59% 29.69 in 10.0 mi SW 16.1 mph 19.6 mph N/A   Scattered Clouds
9:15 AM 72.3 °F - 57.4 °F 59% 29.70 in 10.0 mi SW 17.3 mph - N/A   Mostly Cloudy
9:35 AM 72.9 °F - 55.9 °F 55% 29.71 in 10.0 mi SW 17.3 mph - N/A   Scattered Clouds
9:55 AM 73.8 °F - 55.0 °F 52% 29.70 in 10.0 mi SW 16.1 mph - N/A   Mostly Cloudy
10:15 AM 73.2 °F - 54.1 °F 51% 29.70 in 10.0 mi SW 15.0 mph - N/A   Mostly Cloudy
10:35 AM 73.6 °F - 54.5 °F 51% 29.70 in 10.0 mi WSW 12.7 mph - N/A   Mostly Cloudy
10:55 AM 74.5 °F - 54.0 °F 49% 29.70 in 10.0 mi WSW 17.3 mph 21.9 mph N/A   Mostly Cloudy
11:15 AM 75.6 °F - 53.4 °F 46% 29.70 in 10.0 mi SW 18.4 mph 23.0 mph N/A   Mostly Cloudy
11:35 AM 75.2 °F - 52.9 °F 46% 29.71 in 10.0 mi SW 15.0 mph 21.9 mph N/A   Mostly Cloudy
11:55 AM 75.0 °F - 52.2 °F 45% 29.71 in 10.0 mi SW 18.4 mph 24.2 mph N/A   Mostly Cloudy
12:15 PM 76.3 °F - 53.2 °F 45% 29.71 in 10.0 mi SSW 15.0 mph 19.6 mph N/A   Mostly Cloudy
12:35 PM 76.3 °F - 53.2 °F 45% 29.71 in 10.0 mi WSW 16.1 mph 21.9 mph N/A   Mostly Cloudy
12:55 PM 77.2 °F - 52.7 °F 42% 29.71 in 10.0 mi SW 13.8 mph 19.6 mph N/A   Scattered Clouds
1:15 PM 78.1 °F - 52.0 °F 40% 29.71 in 10.0 mi SW 13.8 mph 29.9 mph N/A   Mostly Cloudy
1:35 PM 77.4 °F - 52.0 °F 41% 29.70 in 10.0 mi WSW 15.0 mph - N/A   Mostly Cloudy
1:55 PM 79.9 °F - 50.9 °F 36% 29.70 in 10.0 mi SW 18.4 mph - N/A   Scattered Clouds
2:15 PM 79.3 °F - 51.8 °F 38% 29.69 in 7.0 mi SW 12.7 mph - N/A   Scattered Clouds
2:35 PM 80.1 °F 80.0 °F 53.4 °F 40% 29.69 in 10.0 mi SW 12.7 mph 18.4 mph N/A   Scattered Clouds
2:55 PM 81.0 °F - 51.6 °F 36% 29.69 in 10.0 mi WSW 13.8 mph 21.9 mph N/A   Scattered Clouds
3:15 PM 81.5 °F - 51.4 °F 35% 29.69 in 7.0 mi SW 17.3 mph 20.7 mph N/A   Scattered Clouds
3:35 PM 81.0 °F - 50.9 °F 35% 29.69 in 10.0 mi SW 13.8 mph 19.6 mph N/A   Scattered Clouds
3:55 PM 81.7 °F - 50.0 °F 33% 29.69 in 10.0 mi SW 13.8 mph - N/A   Scattered Clouds
4:15 PM 81.3 °F - 49.8 °F 33% 29.68 in 10.0 mi SW 17.3 mph 23.0 mph N/A   Clear
4:35 PM 80.6 °F - 49.8 °F 34% 29.68 in 10.0 mi SW 17.3 mph - N/A   Clear
4:55 PM 80.8 °F - 49.3 °F 33% 29.68 in 10.0 mi SW 16.1 mph 21.9 mph N/A   Clear
5:15 PM 81.5 °F - 47.7 °F 31% 29.68 in 10.0 mi SW 11.5 mph - N/A   Scattered Clouds
5:35 PM 81.9 °F - 48.2 °F 31% 29.68 in 10.0 mi SW 17.3 mph - N/A   Scattered Clouds
5:55 PM 80.1 °F - 49.1 °F 34% 29.67 in 10.0 mi SW 13.8 mph 19.6 mph N/A   Scattered Clouds
6:15 PM 77.5 °F - 50.5 °F 39% 29.67 in 10.0 mi SW 11.5 mph 17.3 mph N/A   Scattered Clouds
6:35 PM 76.6 °F - 52.0 °F 42% 29.67 in 10.0 mi SW 9.2 mph - N/A   Clear
6:55 PM 78.3 °F - 50.2 °F 37% 29.67 in 10.0 mi SW 11.5 mph - N/A   Scattered Clouds
7:15 PM 77.7 °F - 51.3 °F 40% 29.68 in 10.0 mi SW 9.2 mph - N/A   Scattered Clouds
7:35 PM 77.0 °F - 51.4 °F 41% 29.68 in 10.0 mi SSW 6.9 mph - N/A   Scattered Clouds
7:55 PM 75.6 °F - 52.3 °F 44% 29.68 in 10.0 mi SW 8.1 mph - N/A   Clear
8:15 PM 73.2 °F - 53.2 °F 49% 29.68 in 10.0 mi SSW 5.8 mph - N/A   Clear
8:35 PM 71.8 °F - 53.4 °F 52% 29.68 in 10.0 mi South 4.6 mph - N/A   Clear
8:55 PM 70.5 °F - 54.5 °F 57% 29.68 in 10.0 mi South 5.8 mph - N/A   Clear
9:15 PM 69.8 °F - 54.5 °F 58% 29.67 in 10.0 mi SSW 4.6 mph - N/A   Clear
9:35 PM 69.6 °F - 54.3 °F 58% 29.67 in 10.0 mi South 3.5 mph - N/A   Scattered Clouds
9:55 PM 69.1 °F - 54.5 °F 60% 29.67 in 10.0 mi South 4.6 mph - N/A   Scattered Clouds
10:15 PM 67.8 °F - 54.7 °F 63% 29.68 in 10.0 mi South 3.5 mph - N/A   Scattered Clouds
10:35 PM 68.5 °F - 54.9 °F 62% 29.68 in 10.0 mi WSW 3.5 mph - N/A   Mostly Cloudy
10:55 PM 69.4 °F - 56.7 °F 64% 29.68 in 10.0 mi South 4.6 mph - N/A   Overcast
11:15 PM 69.4 °F - 56.7 °F 64% 29.69 in 10.0 mi Calm Calm - N/A   Overcast
11:35 PM 69.8 °F - 55.6 °F 61% 29.69 in 10.0 mi West 3.5 mph - N/A   Overcast
11:55 PM 70.0 °F - 54.3 °F 57% 29.69 in 10.0 mi West 5.8 mph - N/A   Mostly Cloudy